Flag for China Weather past 2 weeks in Shanghai, Shanghai Municipality, China

Now
73 °F

Sunny.


Feels Like: 77 °F
Forecast: 62 / 84 °F
Wind: 8 mph from Southeast

Location: Shanghai Hongqiao Airport

Current Time: Oct 25, 2014 at 5:33:22 PM

Latest Report: Oct 25, 2014 at 5:00 PM


Visibility: 10 mi

Pressure: 30.04 "Hg

Humidity: 50%

Dew point: 54 °F

Location of ShanghaiLocation

Historic Weather in Shanghai — Graph

°F

Shanghai temperature yesterday

Maximum temperature yesterday: 77 °F (at 1:30 PM)
Minimum temperature yesterday: 59 °F (at 4:30 AM)
Average temperature yesterday: 68 °F

Past Weeks' High & Low Weather Summary

 TemperatureHumidityPressure
High88 °F (Oct 20, 1:30 PM)94% (Oct 11, 1:30 AM)30.24 "Hg (Oct 11, 1:30 AM)
Low52 °F (Oct 15, 4:30 AM)25% (Oct 15, 1:30 PM)29.86 "Hg (Oct 21, 3:30 AM)
Average69 °F64%30.08 "Hg
* Reported Oct 10 4:00 PM — Oct 25 4:30 PM, Shanghai, Weather by CustomWeather, © 2014

Note: Actual official high and low records may vary slightly from our data, if they occured in-between our weather recording intervals... More about our weather records

Advertising

Shanghai weather history for previous 24 hours

 ConditionsComfort  
Time TempWeatherWind HumidityBarometerVisibility
4:30 PM
Oct 25
75 °FSunny.8 mph47%30.04 "Hg10 mi
4:00 PM75 °FPassing clouds.8 mph50%30.04 "HgN/A
3:30 PM77 °FSunny.8 mph47%30.01 "Hg10 mi
3:00 PM77 °FPassing clouds.8 mph47%30.04 "HgN/A
2:30 PM77 °FPassing clouds.8 mph47%30.04 "HgN/A
2:00 PM77 °FPassing clouds.10 mph47%30.04 "HgN/A
1:30 PM79 °FPassing clouds.8 mph48%30.04 "HgN/A
1:00 PM79 °FPassing clouds.8 mph48%30.04 "HgN/A
12:30 PM77 °FPassing clouds.8 mph51%30.04 "HgN/A
12:00 PM77 °FPassing clouds.8 mph47%30.07 "HgN/A
11:30 AM77 °FPassing clouds.8 mph51%30.07 "HgN/A
11:00 AM77 °FPassing clouds.6 mph51%30.07 "HgN/A
10:30 AM77 °FPassing clouds.8 mph51%30.09 "HgN/A
10:00 AM75 °FPassing clouds.8 mph57%30.09 "HgN/A
9:30 AM73 °FSunny.8 mph61%30.09 "Hg10 mi
9:00 AM72 °FSunny.13 mph65%30.09 "Hg10 mi
8:30 AM70 °FSunny.10 mph69%30.09 "Hg10 mi
8:00 AM68 °FSunny.8 mph78%30.09 "Hg10 mi
7:30 AM66 °FSunny.6 mph78%30.09 "Hg10 mi
7:00 AM64 °FSunny.3 mph83%30.09 "Hg10 mi
6:30 AM63 °FSunny.3 mph88%30.07 "Hg10 mi
6:00 AM63 °FClear.3 mph83%30.07 "Hg10 mi
5:30 AM63 °FClear.3 mph83%30.07 "Hg10 mi
5:00 AM63 °FClear.6 mph83%30.07 "Hg10 mi
4:30 AM63 °FClear.6 mph83%30.04 "Hg10 mi
4:00 AM63 °FClear.6 mph83%30.07 "Hg10 mi
3:30 AM63 °FClear.3 mph83%30.07 "Hg10 mi
3:00 AM63 °FClear.6 mph83%30.07 "Hg10 mi
2:30 AM64 °FClear.6 mph78%30.07 "Hg10 mi
2:00 AM64 °FClear.6 mph78%30.07 "Hg10 mi
1:30 AM64 °FClear.6 mph78%30.07 "Hg10 mi
1:00 AM64 °FClear.3 mph78%30.09 "Hg10 mi
12:30 AM64 °FClear.3 mph78%30.09 "Hg10 mi
12:00 AM64 °FClear.6 mph78%30.09 "Hg10 mi
11:30 PM
Oct 24
64 °FClear.6 mph83%30.09 "Hg10 mi
11:00 PM66 °FClear.6 mph78%30.09 "Hg10 mi
10:30 PM66 °FClear.6 mph78%30.09 "Hg10 mi
10:00 PM66 °FClear.6 mph78%30.09 "Hg10 mi
9:30 PM66 °FClear.8 mph78%30.09 "Hg10 mi
9:00 PM66 °FClear.8 mph78%30.09 "Hg10 mi
8:30 PM66 °FClear.8 mph78%30.09 "Hg10 mi
8:00 PM68 °FClear.8 mph69%30.09 "Hg10 mi
7:30 PM68 °FClear.8 mph69%30.09 "Hg10 mi
7:00 PM68 °FClear.8 mph64%30.07 "Hg10 mi
6:30 PM68 °FClear.8 mph64%30.07 "Hg10 mi
6:00 PM70 °FClear.8 mph50%30.07 "Hg10 mi
5:30 PM70 °FClear.6 mph46%30.07 "Hg10 mi
5:00 PM72 °FSunny.8 mph44%30.04 "Hg10 mi
Weather by CustomWeather, © 2014

See weather overviewHow to use our weather pages